International Skating Union - Official Site

ISU World Cup Speed Skating 2017-2018
November 17-19, 2017

Draw | Lap Times | Index | World Cup

Referee: Ivan  DYAKOV  (RUS)
Starter: John Magne  ELIASSEN  (NOR)
StartTime: EndTime: Air Temp: Ice Temp: Humidity:
18:10 19:25 15.4℃ -6.4℃ 43%
Result 5000m Ladies Division B
Rankings as of Nov 19 2017 7:25PM
Rank: No.: Name: Nation: Time: Behind: Points:
1 271 Esmee  Visser NED NED 6:58.04200m - 21.03 - (21.0)
600m - 54.22 - (33.1)
1000m - 1:27.91 - (33.6)
1400m - 2:01.20 - (33.2)
1800m - 2:33.94 - (32.7)
2200m - 3:06.67 - (32.7)
2600m - 3:39.32 - (32.6)
3000m - 4:12.15 - (32.8)
3400m - 4:45.00 - (32.8)
3800m - 5:18.09 - (33.0)
4200m - 5:51.22 - (33.1)
4600m - 6:24.66 - (33.4)
5000m - 6:58.04 - (33.3)
32
2 247 Nana  Takagi JPN JPN 7:08.77200m - 20.85 - (20.8)
600m - 53.76 - (32.9)
1000m - 1:27.80 - (34.0)
1400m - 2:01.78 - (33.9)
1800m - 2:35.56 - (33.7)
2200m - 3:09.40 - (33.8)
2600m - 3:43.41 - (34.0)
3000m - 4:17.28 - (33.8)
3400m - 4:51.22 - (33.9)
3800m - 5:25.34 - (34.1)
4200m - 5:59.76 - (34.4)
4600m - 6:34.12 - (34.3)
5000m - 7:08.77 - (34.6)
10.73 27
3 243 Misaki  Oshigiri JPN JPN 7:09.55200m - 20.26 - (20.2)
600m - 52.67 - (32.4)
1000m - 1:25.96 - (33.2)
1400m - 2:00.00 - (34.0)
1800m - 2:33.57 - (33.5)
2200m - 3:07.54 - (33.9)
2600m - 3:41.51 - (33.9)
3000m - 4:15.79 - (34.2)
3400m - 4:50.15 - (34.3)
3800m - 5:24.47 - (34.3)
4200m - 5:59.43 - (34.9)
4600m - 6:34.36 - (34.9)
5000m - 7:09.55 - (35.1)
11.51 23
4 204 Marina  Zueva BLR BLR 7:11.39200m - 20.93 - (20.9)
600m - 54.58 - (33.6)
1000m - 1:27.96 - (33.3)
1400m - 2:01.64 - (33.6)
1800m - 2:35.50 - (33.8)
2200m - 3:09.66 - (34.1)
2600m - 3:43.97 - (34.3)
3000m - 4:18.53 - (34.5)
3400m - 4:53.01 - (34.4)
3800m - 5:27.74 - (34.7)
4200m - 6:02.47 - (34.7)
4600m - 6:37.15 - (34.6)
5000m - 7:11.39 - (34.2)
13.35 19
5 202 Jelena  Peeters BEL BEL 7:11.63200m - 20.78 - (20.7)
600m - 53.67 - (32.8)
1000m - 1:27.62 - (33.9)
1400m - 2:01.34 - (33.7)
1800m - 2:35.17 - (33.8)
2200m - 3:09.23 - (34.0)
2600m - 3:43.04 - (33.8)
3000m - 4:16.97 - (33.9)
3400m - 4:51.19 - (34.2)
3800m - 5:25.56 - (34.3)
4200m - 6:00.65 - (35.0)
4600m - 6:35.91 - (35.2)
5000m - 7:11.63 - (35.7)
13.59 15
6 226 Nikola  Zdráhalova CZE CZE 7:11.76200m - 20.53 - (20.5)
600m - 53.68 - (33.1)
1000m - 1:27.11 - (33.4)
1400m - 2:01.38 - (34.2)
1800m - 2:35.40 - (34.0)
2200m - 3:09.64 - (34.2)
2600m - 3:43.66 - (34.0)
3000m - 4:18.00 - (34.3)
3400m - 4:53.04 - (35.0)
3800m - 5:28.21 - (35.1)
4200m - 6:03.20 - (34.9)
4600m - 6:37.91 - (34.7)
5000m - 7:11.76 - (33.8)
13.72 11
7 237 Francesca  Lollobrigida ITA ITA 7:11.94200m - 20.95 - (20.9)
600m - 54.06 - (33.1)
1000m - 1:27.98 - (33.9)
1400m - 2:01.44 - (33.4)
1800m - 2:35.12 - (33.6)
2200m - 3:08.87 - (33.7)
2600m - 3:42.94 - (34.0)
3000m - 4:17.16 - (34.2)
3400m - 4:52.25 - (35.0)
3800m - 5:27.17 - (34.9)
4200m - 6:02.16 - (34.9)
4600m - 6:37.40 - (35.2)
5000m - 7:11.94 - (34.5)
13.90 9
8 229 Stephanie  Beckert GER GER 7:12.15200m - 22.12 - (22.1)
600m - 55.85 - (33.7)
1000m - 1:29.26 - (33.4)
1400m - 2:03.05 - (33.7)
1800m - 2:36.78 - (33.7)
2200m - 3:10.63 - (33.8)
2600m - 3:44.28 - (33.6)
3000m - 4:18.30 - (34.0)
3400m - 4:52.73 - (34.4)
3800m - 5:27.26 - (34.5)
4200m - 6:02.23 - (34.9)
4600m - 6:37.39 - (35.1)
5000m - 7:12.15 - (34.7)
14.11 7
9 290 Victoria  Filyushkina RUS RUS 7:13.66200m - 21.65 - (21.6)
600m - 54.93 - (33.2)
1000m - 1:28.86 - (33.9)
1400m - 2:03.25 - (34.3)
1800m - 2:37.78 - (34.5)
2200m - 3:12.20 - (34.4)
2600m - 3:46.60 - (34.4)
3000m - 4:21.08 - (34.4)
3400m - 4:55.56 - (34.4)
3800m - 5:30.03 - (34.4)
4200m - 6:04.57 - (34.5)
4600m - 6:39.31 - (34.7)
5000m - 7:13.66 - (34.3)
15.62 6
10 294 Elena  Sokhryakova RUS RUS 7:14.05200m - 21.25 - (21.2)
600m - 54.27 - (33.0)
1000m - 1:27.51 - (33.2)
1400m - 2:01.35 - (33.8)
1800m - 2:35.15 - (33.8)
2200m - 3:09.26 - (34.1)
2600m - 3:43.55 - (34.2)
3000m - 4:18.24 - (34.6)
3400m - 4:52.95 - (34.7)
3800m - 5:28.37 - (35.4)
4200m - 6:03.93 - (35.5)
4600m - 6:39.33 - (35.3)
5000m - 7:14.05 - (34.7)
16.01 5
11 284 Magdalena  Czyszczon POL POL 7:15.74200m - 21.25 - (21.2)
600m - 54.05 - (32.7)
1000m - 1:27.88 - (33.8)
1400m - 2:01.77 - (33.8)
1800m - 2:35.57 - (33.7)
2200m - 3:09.65 - (34.0)
2600m - 3:43.43 - (33.7)
3000m - 4:17.35 - (33.9)
3400m - 4:51.98 - (34.6)
3800m - 5:27.07 - (35.0)
4200m - 6:02.69 - (35.6)
4600m - 6:39.26 - (36.5)
5000m - 7:15.74 - (36.4)
17.70 4
12 278 Camilla  Lund NOR NOR 7:16.01200m - 21.68 - (21.6)
600m - 55.20 - (33.5)
1000m - 1:28.77 - (33.5)
1400m - 2:02.29 - (33.5)
1800m - 2:35.91 - (33.6)
2200m - 3:09.86 - (33.9)
2600m - 3:44.23 - (34.3)
3000m - 4:19.01 - (34.7)
3400m - 4:54.10 - (35.0)
3800m - 5:29.31 - (35.2)
4200m - 6:04.95 - (35.6)
4600m - 6:40.48 - (35.5)
5000m - 7:16.01 - (35.5)
17.97 3
13 210 Victoria  Spence CAN CAN 7:16.03200m - 21.42 - (21.4)
600m - 55.18 - (33.7)
1000m - 1:29.59 - (34.4)
1400m - 2:04.39 - (34.7)
1800m - 2:39.02 - (34.6)
2200m - 3:13.79 - (34.7)
2600m - 3:48.16 - (34.3)
3000m - 4:22.79 - (34.6)
3400m - 4:57.37 - (34.5)
3800m - 5:32.06 - (34.6)
4200m - 6:06.58 - (34.5)
4600m - 6:41.46 - (34.8)
5000m - 7:16.03 - (34.5)
17.99 2
14 214 Jiachen  Hao CHN CHN 7:16.11200m - 20.52 - (20.5)
600m - 53.58 - (33.0)
1000m - 1:26.72 - (33.1)
1400m - 2:00.80 - (34.0)
1800m - 2:35.00 - (34.2)
2200m - 3:09.17 - (34.1)
2600m - 3:42.96 - (33.7)
3000m - 4:17.59 - (34.6)
3400m - 4:52.79 - (35.2)
3800m - 5:28.73 - (35.9)
4200m - 6:04.88 - (36.1)
4600m - 6:40.72 - (35.8)
5000m - 7:16.11 - (35.3)
18.07 1
15 239 Shoko  Fujimura JPN JPN 7:16.62200m - 21.41 - (21.4)
600m - 55.29 - (33.8)
1000m - 1:29.64 - (34.3)
1400m - 2:04.17 - (34.5)
1800m - 2:38.89 - (34.7)
2200m - 3:13.65 - (34.7)
2600m - 3:48.55 - (34.9)
3000m - 4:23.33 - (34.7)
3400m - 4:58.10 - (34.7)
3800m - 5:32.61 - (34.5)
4200m - 6:07.38 - (34.7)
4600m - 6:42.15 - (34.7)
5000m - 7:16.62 - (34.4)
18.58 0
16 248 Nana  Takahashi JPN JPN 7:17.59200m - 20.72 - (20.7)
600m - 53.27 - (32.5)
1000m - 1:26.39 - (33.1)
1400m - 1:59.76 - (33.3)
1800m - 2:33.44 - (33.6)
2200m - 3:07.30 - (33.8)
2600m - 3:41.59 - (34.2)
3000m - 4:16.57 - (34.9)
3400m - 4:51.92 - (35.3)
3800m - 5:27.89 - (35.9)
4200m - 6:04.04 - (36.1)
4600m - 6:40.54 - (36.5)
5000m - 7:17.59 - (37.0)
19.55 0
17 286 Katarzyna  Wozniak POL POL 7:18.02200m - 21.10 - (21.1)
600m - 54.28 - (33.1)
1000m - 1:28.09 - (33.8)
1400m - 2:01.39 - (33.2)
1800m - 2:34.70 - (33.3)
2200m - 3:08.41 - (33.7)
2600m - 3:42.72 - (34.3)
3000m - 4:17.54 - (34.8)
3400m - 4:52.86 - (35.3)
3800m - 5:28.39 - (35.5)
4200m - 6:04.27 - (35.8)
4600m - 6:40.67 - (36.4)
5000m - 7:18.02 - (37.3)
19.98 0
18 255 Ji Woo  Park KOR KOR 7:18.70200m - 21.46 - (21.4)
600m - 56.01 - (34.5)
1000m - 1:30.20 - (34.1)
1400m - 2:04.02 - (33.8)
1800m - 2:38.85 - (34.8)
2200m - 3:13.50 - (34.6)
2600m - 3:48.25 - (34.7)
3000m - 4:22.82 - (34.5)
3400m - 4:57.57 - (34.7)
3800m - 5:32.30 - (34.7)
4200m - 6:07.58 - (35.2)
4600m - 6:43.21 - (35.6)
5000m - 7:18.70 - (35.4)
20.66 0
19 276 Sofie Karoline  Haugen NOR NOR 7:19.88200m - 21.13 - (21.1)
600m - 54.46 - (33.3)
1000m - 1:27.44 - (32.9)
1400m - 2:00.78 - (33.3)
1800m - 2:33.77 - (32.9)
2200m - 3:07.05 - (33.2)
2600m - 3:41.25 - (34.1)
3000m - 4:16.17 - (34.9)
3400m - 4:51.99 - (35.8)
3800m - 5:28.29 - (36.3)
4200m - 6:04.70 - (36.4)
4600m - 6:41.93 - (37.2)
5000m - 7:19.88 - (37.9)
21.84 0
20 282 Karolina  Bosiek POL POL 7:20.01200m - 21.44 - (21.4)
600m - 55.25 - (33.8)
1000m - 1:29.11 - (33.8)
1400m - 2:02.96 - (33.8)
1800m - 2:36.99 - (34.0)
2200m - 3:11.43 - (34.4)
2600m - 3:46.30 - (34.8)
3000m - 4:21.25 - (34.9)
3400m - 4:56.58 - (35.3)
3800m - 5:31.93 - (35.3)
4200m - 6:08.15 - (36.2)
4600m - 6:44.31 - (36.1)
5000m - 7:20.01 - (35.6)
21.97 0
21 216 Dan  Li CHN CHN 7:21.01200m - 21.16 - (21.1)
600m - 53.75 - (32.5)
1000m - 1:26.98 - (33.2)
1400m - 2:00.58 - (33.5)
1800m - 2:34.80 - (34.2)
2200m - 3:09.35 - (34.5)
2600m - 3:44.16 - (34.8)
3000m - 4:19.64 - (35.4)
3400m - 4:55.23 - (35.5)
3800m - 5:31.06 - (35.8)
4200m - 6:07.57 - (36.5)
4600m - 6:44.31 - (36.7)
5000m - 7:21.01 - (36.6)
22.97 0
22 213 Mei  Han CHN CHN 7:21.88200m - 21.30 - (21.3)
600m - 54.57 - (33.2)
1000m - 1:28.58 - (34.0)
1400m - 2:02.36 - (33.7)
1800m - 2:36.86 - (34.5)
2200m - 3:10.98 - (34.1)
2600m - 3:45.74 - (34.7)
3000m - 4:21.07 - (35.3)
3400m - 4:56.81 - (35.7)
3800m - 5:33.02 - (36.2)
4200m - 6:09.39 - (36.3)
4600m - 6:45.86 - (36.4)
5000m - 7:21.88 - (36.0)
23.84 0
23 227 Saskia  Alusalu EST EST 7:23.69200m - 21.20 - (21.1)
600m - 54.92 - (33.7)
1000m - 1:29.10 - (34.1)
1400m - 2:04.06 - (34.9)
1800m - 2:38.78 - (34.7)
2200m - 3:13.55 - (34.7)
2600m - 3:48.51 - (34.9)
3000m - 4:23.52 - (35.0)
3400m - 4:58.52 - (35.0)
3800m - 5:33.97 - (35.4)
4200m - 6:09.84 - (35.8)
4600m - 6:46.48 - (36.6)
5000m - 7:23.69 - (37.1)
25.65 0
24 281 Katarzyna  Bachleda-Curus POL POL 7:24.69200m - 20.48 - (20.4)
600m - 52.65 - (32.1)
1000m - 1:26.20 - (33.5)
1400m - 1:59.82 - (33.6)
1800m - 2:33.66 - (33.8)
2200m - 3:07.66 - (34.0)
2600m - 3:42.61 - (34.9)
3000m - 4:18.46 - (35.8)
3400m - 4:55.03 - (36.5)
3800m - 5:31.91 - (36.8)
4200m - 6:09.55 - (37.6)
4600m - 6:46.89 - (37.3)
5000m - 7:24.69 - (37.8)
26.65 0
25 224 Natálie  Kerschbaummayr CZE CZE 7:28.28200m - 21.98 - (21.9)
600m - 57.55 - (35.5)
1000m - 1:33.30 - (35.7)
1400m - 2:08.94 - (35.6)
1800m - 2:44.21 - (35.2)
2200m - 3:19.69 - (35.4)
2600m - 3:55.23 - (35.5)
3000m - 4:30.47 - (35.2)
3400m - 5:06.19 - (35.7)
3800m - 5:41.93 - (35.7)
4200m - 6:17.61 - (35.6)
4600m - 6:53.25 - (35.6)
5000m - 7:28.28 - (35.0)
30.24 0
26 280 Ragne  Wiklund NOR NOR 7:31.21200m - 21.61 - (21.6)
600m - 55.93 - (34.3)
1000m - 1:31.29 - (35.3)
1400m - 2:06.27 - (34.9)
1800m - 2:41.24 - (34.9)
2200m - 3:16.23 - (34.9)
2600m - 3:51.63 - (35.4)
3000m - 4:27.20 - (35.5)
3400m - 5:03.43 - (36.2)
3800m - 5:39.92 - (36.4)
4200m - 6:16.78 - (36.8)
4600m - 6:54.00 - (37.2)
5000m - 7:31.21 - (37.1)
33.17 0
27 285 Aleksandra  Goss POL POL DQ200m - 21.17 - (21.1)
600m - 54.58 - (33.4)
1000m - 1:28.43 - (33.8)
1400m - 2:02.40 - (33.9)
1800m - 2:37.49 - (35.0)
2200m - 3:13.52 - (36.0)
2600m - 3:50.17 - (36.6)
3000m - 4:27.38 - (37.2)
3400m - 5:05.14 - (37.7)
3800m - 5:42.94 - (37.8)
4200m - 6:20.85 - (37.9)
4600m - 6:59.05 - (38.1)
5000m - 7:36.88 - (37.8)
0